Location: Turtle Rock Observatory
(36.6913°N, 81.9708°W)
Time: 11:08:53
(UTC-05:00)

TITAN 4B R/B - Visible Passes

Search period start: 31 January 2015 00:00
Search period end: 10 February 2015 00:00
Orbit: 466 x 656 km, 57.0° (Epoch: 28 January)

Date Brightness Start Highest point End Pass type
(mag) Time Alt. Az. Time Alt. Az. Time Alt. Az.
31 Jan 3.6 19:09:06 10° NNE 19:09:51 11° NNE 19:09:51 11° NNE visible
01 Feb 3.3 19:06:37 10° N 19:08:44 14° NNE 19:08:44 14° NNE visible
02 Feb 3.0 19:04:32 10° N 19:07:27 18° NNE 19:07:42 18° NE visible
02 Feb 4.3 20:43:14 10° NW 20:43:39 12° NW 20:43:39 12° NW visible
03 Feb 2.5 19:02:36 10° NNW 19:06:04 24° NE 19:06:49 23° NE visible
03 Feb 4.1 20:41:48 10° NW 20:42:47 16° WNW 20:42:47 16° WNW visible
04 Feb 2.1 19:00:46 10° NNW 19:04:37 33° NE 19:06:08 25° E visible
04 Feb 4.0 20:40:32 10° WNW 20:42:05 18° W 20:42:05 18° W visible
05 Feb 1.6 18:59:00 10° NNW 19:03:07 47° NE 19:05:40 19° ESE visible
05 Feb 4.0 20:39:34 10° W 20:41:40 16° WSW 20:41:40 16° WSW visible
06 Feb 1.2 18:57:18 10° NW 19:01:33 72° NE 19:05:30 10° SE visible
06 Feb 4.4 20:39:49 10° WSW 20:40:25 10° WSW 20:40:48 10° WSW visible
07 Feb 1.5 18:55:41 10° NW 18:59:56 75° SW 19:03:53 10° SE visible
08 Feb 2.4 18:54:10 10° NW 18:58:16 47° SW 19:02:04 10° SSE visible
09 Feb 3.3 18:52:47 10° WNW 18:56:32 31° WSW 19:00:02 10° S visible
